Weather observations for the past three days for
Del Rio, Del Rio International Airport
| Date | Time (cdt) | Wind (mph) | Vis. (mi.) | Weather | Sky Cond. | Temperature (ºF) | Relative Humidity | Wind Chill (°F) | Heat Index (°F) | Pressure | Precipitation (in) | ||||||
|---|---|---|---|---|---|---|---|---|---|---|---|---|---|---|---|---|---|
| Air | Dwpt | 6 hour | altimeter (in) | sea level (mb) | 1 hr | 3 hr | 6 hr | ||||||||||
| Max. | Min. | ||||||||||||||||
| 08 | 07:53 | E 9 | 10.00 | Overcast | OVC016 | 64 | 60.1 | 87% | 29.9 | 1012.2 | |||||||
| 08 | 06:53 | E 5 | 10.00 | Overcast | OVC016 | 64 | 61 | 64 | 63 | 90% | 29.9 | 1012.0 | |||||
| 08 | 05:53 | E 7 | 10.00 | Overcast | OVC017 | 64 | 61 | 90% | 29.9 | 1012.2 | |||||||
| 08 | 04:53 | E 5 | 10.00 | Overcast | OVC018 | 63 | 62.1 | 97% | 29.9 | 1012.3 | |||||||
| 08 | 03:53 | NE 3 | 10.00 | Overcast | OVC021 | 63 | 61 | 93% | 29.92 | 1012.9 | |||||||
| 08 | 02:53 | E 3 | 10.00 | Overcast | OVC020 | 64 | 61 | 90% | 29.92 | 1013.0 | |||||||
| 08 | 01:53 | SE 3 | 10.00 | Overcast | OVC019 | 63 | 60.1 | 90% | 29.94 | 1013.5 | |||||||
| 08 | 00:53 | Calm | 10.00 | Overcast | OVC019 | 63 | 61 | 63 | 62.1 | 93% | 29.96 | 1014.1 | |||||
| 07 | 23:53 | Calm | 10.00 | Overcast | OVC020 | 63 | 60.1 | 90% | 29.96 | 1014.3 | |||||||
| 07 | 22:53 | Calm | 10.00 | Overcast | OVC016 | 63 | 60.1 | 90% | 29.97 | 1014.5 | |||||||
| 07 | 21:53 | Calm | 10.00 | Overcast | OVC018 | 63 | 60.1 | 90% | 29.96 | 1014.1 | |||||||
| 07 | 20:53 | E 3 | 10.00 | Overcast | OVC020 | 63 | 60.1 | 90% | 29.95 | 1013.8 | |||||||
| 07 | 19:53 | E 6 | 10.00 | Overcast | FEW010 OVC024 | 63 | 60.1 | 90% | 29.94 | 1013.4 | |||||||
| 07 | 18:53 | Vrbl 5 | 10.00 | Overcast | BKN010 OVC028 | 63 | 60.1 | 64 | 62.1 | 90% | 29.96 | 1013.9 | 0.03 | ||||
| 07 | 17:53 | NE 6 | 10.00 | Overcast | OVC012 | 63 | 60.1 | 90% | 29.95 | 1013.8 | |||||||
| 07 | 16:53 | N 5 | 9.00 | Overcast | SCT004 BKN008 OVC033 | 62.1 | 61 | 96% | 29.97 | 1014.3 | 0.02 | ||||||
| 07 | 15:51 | N 7 | 10.00 | Overcast | SCT007 OVC012 | 62.1 | 60.1 | 93% | 29.99 | 1014.9 | 0.01 | 0.01 | |||||
| 07 | 14:53 | N 7 | 10.00 | Overcast | OVC011 | 62.1 | 60.1 | 93% | 30.01 | 1015.7 | |||||||
| 07 | 13:53 | N 6 | 10.00 | Overcast | OVC011 | 63 | 59 | 87% | 30.02 | 1016.1 | |||||||
| 07 | 12:53 | N 7 | 10.00 | Overcast | OVC010 | 64 | 60.1 | 69.1 | 62.1 | 87% | 30.02 | 1016.1 | 0.02 | ||||
| 07 | 11:53 | N 8 | 10.00 | Overcast | OVC009 | 62.1 | 59 | 90% | 30.03 | 1016.3 | 0.01 | ||||||
| 07 | 10:53 | NE 12 | 10.00 | Thunderstorm in Vicinity | FEW008 OVC019 | 62.1 | 59 | 90% | 30.03 | 1016.4 | 0.01 | ||||||
| 07 | 09:53 | N 12 G 18 | 6.00 | Fog/Mist | OVC010 | 64 | 62.1 | 93% | 29.99 | 1015.0 | |||||||
| 07 | 08:53 | N 3 | 10.00 | Overcast | OVC013 | 68 | 64 | 87% | 29.99 | 1014.7 | |||||||
| 07 | 07:53 | SE 5 | 10.00 | Overcast | OVC015 | 69.1 | 63 | 81% | 29.98 | 1014.2 | |||||||
| 07 | 06:53 | N 3 | 10.00 | Overcast | OVC018 | 69.1 | 62.1 | 73 | 69.1 | 78% | 29.95 | 1013.1 | |||||
| 07 | 05:53 | NE 6 | 10.00 | Overcast | OVC017 | 70 | 61 | 73% | 29.93 | 1012.5 | |||||||
| 07 | 04:53 | E 6 | 10.00 | Overcast | OVC016 | 70 | 62.1 | 76% | 29.92 | 1012.2 | |||||||
| 07 | 03:53 | E 5 | 10.00 | Overcast | OVC020 | 70 | 62.1 | 76% | 29.92 | 1012.0 | |||||||
| 07 | 02:53 | E 7 | 10.00 | Partly Cloudy | FEW030 SCT046 | 70 | 61 | 73% | 29.93 | 1012.5 | |||||||
| 07 | 01:53 | E 7 | 10.00 | Mostly Cloudy | BKN033 | 71.1 | 61 | 71% | 29.93 | 1012.7 | |||||||
| 07 | 00:53 | E 7 | 10.00 | Fair | CLR | 73 | 62.1 | 87.1 | 73 | 69% | 29.92 | 1012.2 | |||||
| 06 | 23:53 | E 6 | 10.00 | Fair | CLR | 73.9 | 63 | 69% | 29.91 | 1012.1 | |||||||
| 06 | 22:53 | NE 6 | 10.00 | Fair | CLR | 75.9 | 63 | 64% | 78 | 29.87 | 1010.6 | ||||||
| 06 | 21:53 | NE 7 | 10.00 | Fair | CLR | 79 | 61 | 54% | 80 | 29.85 | 1009.7 | ||||||
| 06 | 20:53 | NE 6 | 10.00 | Fair | CLR | 82 | 59 | 46% | 82 | 29.83 | 1009.2 | ||||||
| 06 | 19:53 | NE 8 | 10.00 | Fair | CLR | 84.9 | 57.9 | 40% | 84 | 29.81 | 1008.3 | ||||||
| 06 | 18:53 | NE 8 G 20 | 10.00 | Fair | CLR | 87.1 | 57 | 89.1 | 82.9 | 36% | 86 | 29.79 | 1007.6 | ||||
| 06 | 17:53 | NE 9 G 20 | 10.00 | Fair | CLR | 88 | 57.9 | 36% | 87 | 29.78 | 1007.2 | ||||||
| 06 | 16:53 | NE 10 G 21 | 10.00 | Fair | CLR | 88 | 61 | 40% | 88 | 29.77 | 1007.0 | ||||||
| 06 | 15:53 | NE 8 G 17 | 10.00 | Fair | CLR | 88 | 60.1 | 39% | 88 | 29.79 | 1007.7 | ||||||
| 06 | 14:53 | Vrbl 7 | 10.00 | Fair | CLR | 84.9 | 66 | 53% | 87 | 29.8 | 1008.0 | ||||||
| 06 | 13:53 | N 7 | 10.00 | A Few Clouds | FEW048 | 84 | 70 | 63% | 88 | 29.82 | 1008.8 | ||||||
| 06 | 12:53 | NE 7 | 10.00 | Fair | CLR | 84.9 | 69.1 | 84.9 | 75.9 | 59% | 89 | 29.85 | 1009.5 | ||||
| 06 | 11:53 | NE 10 G 20 | 10.00 | Partly Cloudy | FEW013 SCT018 | 77 | 70 | 79% | 79 | 29.84 | 1009.4 | ||||||
| 06 | 10:53 | NE 6 | 10.00 | Overcast | BKN012 OVC041 | 79 | 73 | 82% | 82 | 29.82 | 1008.8 | ||||||
| 06 | 09:53 | SE 3 | 10.00 | Overcast | OVC011 | 77 | 73 | 88% | 78 | 29.81 | 1008.3 | ||||||
| 06 | 08:53 | SE 9 | 10.00 | Overcast | OVC011 | 77 | 73 | 88% | 78 | 29.78 | 1007.4 | ||||||
| 06 | 07:53 | E 10 | 10.00 | Overcast | BKN009 OVC023 | 75.9 | 72 | 88% | 76 | 29.76 | 1006.7 | ||||||
| 06 | 06:53 | SE 8 | 10.00 | Overcast | OVC011 | 75.9 | 72 | 80.1 | 75.9 | 88% | 76 | 29.75 | 1006.2 | ||||
| 06 | 05:53 | E 7 | 10.00 | Overcast | OVC012 | 77 | 72 | 85% | 78 | 29.74 | 1006.0 | ||||||
| 06 | 04:53 | SE 9 | 10.00 | Overcast | OVC013 | 77 | 73 | 88% | 78 | 29.74 | 1005.9 | ||||||
| 06 | 03:53 | E 10 | 10.00 | Overcast | OVC014 | 78.1 | 73 | 85% | 81 | 29.73 | 1005.5 | ||||||
| 06 | 02:53 | E 8 G 21 | 10.00 | A Few Clouds | FEW015 | 78.1 | 72 | 82% | 80 | 29.72 | 1005.2 | ||||||
| 06 | 01:53 | E 10 | 10.00 | Overcast | FEW080 OVC100 | 80.1 | 72 | 76% | 84 | 29.73 | 1005.5 | ||||||
| 06 | 00:53 | E 8 | 10.00 | Overcast | OVC100 | 79 | 70 | 90 | 77 | 74% | 82 | 29.72 | 1005.3 | ||||
| 05 | 23:53 | NE 5 | 10.00 | Fair | CLR | 79 | 69.1 | 72% | 82 | 29.72 | 1005.4 | ||||||
| 05 | 22:53 | Calm | 10.00 | Fair | CLR | 78.1 | 69.1 | 74% | 80 | 29.71 | 1005.1 | ||||||
| 05 | 21:53 | E 5 | 10.00 | Fair | CLR | 82.9 | 68 | 61% | 86 | 29.69 | 1004.2 | ||||||
| 05 | 20:53 | E 6 | 10.00 | Fair | CLR | 84.9 | 66.9 | 55% | 88 | 29.67 | 1003.6 | ||||||
| 05 | 19:53 | E 7 | 10.00 | Fair | CLR | 88 | 64.9 | 46% | 90 | 29.65 | 1003.0 | ||||||
| 05 | 18:53 | E 6 | 10.00 | Fair | CLR | 89.1 | 66 | 90 | 81 | 47% | 92 | 29.65 | 1002.8 | ||||
| 05 | 17:53 | E 7 | 10.00 | Fair | CLR | 88 | 66 | 48% | 90 | 29.66 | 1003.3 | ||||||
| 05 | 16:53 | NE 3 | 10.00 | Fair | CLR | 89.1 | 66 | 47% | 92 | 29.67 | 1003.6 | ||||||
| 05 | 15:53 | NE 5 | 10.00 | Fair | CLR | 88 | 64.9 | 46% | 90 | 29.69 | 1004.4 | ||||||
| 05 | 14:53 | Vrbl 3 | 10.00 | Fair | CLR | 88 | 64 | 45% | 89 | 29.71 | 1004.9 | ||||||
| 05 | 13:53 | Calm | 10.00 | Fair | CLR | 84.9 | 68 | 57% | 88 | 29.74 | 1005.9 | ||||||
| 05 | 12:53 | Vrbl 3 | 10.00 | Fair | CLR | 81 | 68 | 81 | 70 | 65% | 84 | 29.76 | 1006.7 | ||||
| 05 | 11:53 | Vrbl 5 | 10.00 | A Few Clouds | FEW021 | 79 | 68 | 69% | 81 | 29.77 | 1007.1 | ||||||
| 05 | 10:53 | S 6 | 10.00 | Overcast | OVC017 | 75 | 66.9 | 76% | 76 | 29.78 | 1007.6 | ||||||
| 05 | 09:53 | SE 9 | 10.00 | Overcast | OVC014 | 73.9 | 68 | 82% | 29.77 | 1007.1 | |||||||
| 05 | 08:53 | SE 10 | 10.00 | Overcast | OVC010 | 72 | 68 | 87% | 29.76 | 1006.9 | |||||||
| Date | Time (cdt) | Wind (mph) | Vis. (mi.) | Weather | Sky Cond. | Air | Dwpt | Max. | Min. | Relative Humidity | Wind Chill (°F) | Heat Index (°F) | altimeter (in) | sea level (mb) | 1 hr | 3 hr | 6 hr |
| 6 hour | |||||||||||||||||
| Temperature (ºF) | Pressure | Precipitation (in) | |||||||||||||||